Hourly Weather Roundup
Issued by NWS

Home | Current Version | Previous Version | Text Only | Print | Product List | Glossary On
Versions: 1 2 3 4 5 6 7 8 9 10 11 12 13 14 15 16 17 18 19 20 21 22 23 24 25 26 27 28 29 30 31 32 33 34 35 36 37 38 39 40 41 42 43 44 45 46 47 48 49 50
502
NZUS43 KILX 281410
HWRCRS

CRS HOURLY WEATHER ROUNDUP
NATIONAL WEATHER SERVICE, LINCOLN IL
900 AM CDT SUN AUG 28 2016


CITY           SKY/WX    TMP DP  RH WIND       PRES   REMARKS
CHAMPAIGN      PTSUNNY   75  73  93 CALM      30.20R
LAWRENCEVILLE  SUNNY     81  77  88 CALM      30.19R HX  88
PEORIA         SUNNY     74  73  97 CALM      30.18R
SPRINGFIELD    NOT AVBL
$$


CITY           SKY/WX    TMP DP  RH WIND       PRES   REMARKS
BLOOMINGTON    CLOUDY    75  73  93 SW3       30.20R
DECATUR        CLOUDY    76  73  91 SE3       30.19R
EFFINGHAM      SUNNY     80  79  95 E3        30.20R HX  88
FLORA          SUNNY     82  77  85 CALM      30.18F HX  89
GALESBURG      SUNNY     76  72  88 S3        30.18S
JACKSONVILLE   CLOUDY    79  74  83 S5        30.15F HX  83
LACON          SUNNY     77  73  86 SW3       30.18R
LINCOLN        CLOUDY    72  72  98 SE3       30.17S
LITCHFIELD     SUNNY     79  74  87 CALM      30.18S HX  82

CITY           SKY/WX    TMP DP  RH WIND       PRES   REMARKS
MACOMB         MOSUNNY   76  74  95 CALM      30.20S
MATTOON        MOSUNNY   79  73  82 CALM      30.19R HX  82
MOLINE         SUNNY     74  70  87 CALM      30.18R
OLNEY          SUNNY     81  79  94 CALM      30.19S HX  89
PARIS          SUNNY     79  77  93 CALM      30.20S HX  84
PONTIAC        PTSUNNY   77  75  93 CALM      30.19S
QUINCY         MOSUNNY   75  73  93 E6        30.16S
RANTOUL        CLOUDY    76  74  93 CALM      30.19S
ROBINSON       SUNNY     78  76  93 CALM      30.19S HX  80
TAYLORVILLE    SUNNY     78  73  85 NE3       30.18S
TERRE HAUTE    SUNNY     81  75  82 N3        30.20R HX  87
$$


CITY           SKY/WX    TMP DP  RH WIND       PRES   REMARKS
BURLINGTON     SUNNY     77  74  90 S6        30.17R
CHICAGO        MOSUNNY   76  70  82 E6        30.19S
DES MOINES     MOSUNNY   75  69  81 SE6       30.14R
EVANSVILLE     SUNNY     81  76  84 VRB3      30.18R HX  87
INDIANAPOLIS   MOSUNNY   79  73  82 CALM      30.21R HX  82
KANSAS CITY    MOSUNNY   78  71  79 S6        30.13R HX  80
MILWAUKEE      FOG       67  63  87 NE12      30.22R VSB 1/2
ST LOUIS       MOSUNNY   85  71  63 CALM      30.17R HX  90
$$





USA.gov is the U.S. government's official web portal to all federal, state and local government web resources and services.